• Join FlightAware (Why Join?)
  • Login
  • US Flag 
10:56PM EST


 

Airport Tracker/Info


-or-


 

Live Flight TrackerFlight Track Log ✈ EJA831 ✈ 02-May-2013 ✈ KRMN - KILM

Flight Track Log - Related Links

Times and Time Zones

All times are in EDT time to prevent confusion due to time zone crossing. See the EJA831 flight status page for this flight to view local times or setup timezone preferences in your user account.

Time Position Orientation Groundspeed Altitude Reporting Facility
EDT Latitude Longitude Course Direction KTS MPH feet Rate Location/Type
11:28AM 38.3667 -77.4167 122° Southeast 195 224 1,700  Level Potomac TRACON
11:29AM 38.3333 -77.3500 122° Southeast 224 258 3,000 1,500 Climbing Potomac TRACON
11:30AM 38.2833 -77.2833 134° Southeast 248 285 4,800 1,560 Climbing Potomac TRACON
11:31AM 38.2208 -77.1986 133° Southeast 269 310 7,100 1,620 Climbing Washington Center
11:32AM 38.1697 -77.1261 132° Southeast 276 318 9,000 1,020 Climbing Washington Center
11:33AM 38.1183 -77.0514 131° Southeast 276 318 9,200 1,620 Climbing Washington Center
11:34AM 38.0544 -77.0025 149° Southeast 276 318 12,300 3,120 Climbing Washington Center
11:35AM 37.9667 -77.0167 187° South 269 310 15,400 2,280 Climbing Washington Center
11:36AM 37.8706 -77.0333 188° South 311 358 16,900 1,380 Climbing Washington Center
11:37AM 37.7661 -77.0497 187° South 356 410 18,300 1,020 Climbing Washington Center
11:38AM 37.6594 -77.0661 187° South 381 438 19,000 300 Climbing Washington Center
11:39AM 37.5528 -77.0822 187° South 391 450 19,000 420 Level Washington Center
11:40AM 37.4464 -77.0986 187° South 391 450 19,900 480 Climbing Washington Center
11:41AM 37.3272 -77.1197 188° South 391 450 20,000  Climbing Washington Center
11:42AM 37.2222 -77.1647 199° South 391 450 20,000  Level Washington Center
11:43AM 37.1194 -77.2094 199° South 401 461 20,000  Level Washington Center
11:44AM 37.0167 -77.2542 199° South 401 461 20,000  Level Washington Center
11:45AM 36.9139 -77.2986 199° South 406 467 20,000  Level Washington Center
11:46AM 36.8108 -77.3456 200° South 400 460 20,000  Level Washington Center
11:47AM 36.7039 -77.3900 198° South 400 460 20,000  Level Washington Center
11:48AM 36.6050 -77.4342 200° South 400 460 20,000  Level Washington Center
11:49AM 36.5022 -77.4783 199° South 395 455 20,000  Level Washington Center
11:50AM 36.4117 -77.5200 200° South 390 449 20,000  Level Washington Center
11:51AM 36.3089 -77.5639 199° South 390 449 20,000  Level Washington Center
11:52AM 36.2058 -77.6100 200° South 390 449 20,000  Level Washington Center
11:53AM 36.1028 -77.6539 199° South 390 449 20,000  Level Washington Center
11:54AM 36.0000 -77.6947 198° South 390 449 20,000  Level Washington Center
11:55AM 35.8931 -77.7253 193° South 390 449 20,000  Level Washington Center
11:56AM 35.7861 -77.7481 190° South 390 449 20,000  Level Washington Center
11:57AM 35.6792 -77.7731 191° South 390 449 20,000  Level Washington Center
11:58AM 35.5744 -77.8011 192° South 390 449 20,000 -360 Level Washington Center
11:59AM 35.4675 -77.8236 190° South 390 449 19,400 -960 Descending Washington Center
12:00PM 35.3628 -77.8486 191° South 390 449 18,100 -1,260 Descending Washington Center
12:01PM 35.2622 -77.8714 190° South 384 442 17,000 -1,020 Descending Washington Center
12:02PM 35.1617 -77.8939 190° South 378 435 16,100 -540 Descending Washington Center
12:03PM 35.0694 -77.9167 191° South 358 412 16,000 -60 Descending Washington Center
12:04PM 34.9792 -77.9367 190° South 348 400 16,000 -60 Level Washington Center
12:05PM 34.8828 -77.9594 191° South 343 395 15,900 -720 Descending Washington Center
12:06PM 34.7850 -77.9489 175° South 338 389 14,600 -1,320 Descending Washington Center
12:07PM 34.7069 -77.9844 201° Southwest 315 362 13,400 -1,260 Descending Washington Center
12:08PM 34.6389 -78.0583 222° Southwest 310 357 12,100 -1,620 Descending Washington Center
12:09PM 34.5731 -78.1092 212° Southwest 305 351 10,200 -2,040 Descending Washington Center
12:10PM 34.4961 -78.0994 174° South 273 314 8,200 -2,160 Descending Washington Center
12:11PM 34.4250 -78.1022 182° South 267 307 5,900 -2,100 Descending Washington Center
12:12PM 34.3639 -78.1381 206° Southwest 253 291 4,000 -1,020 Descending Washington Center
12:13PM 34.3053 -78.1439 185° South 236 272 3,900 -540 Descending Washington Center
12:14PM 34.2622 -78.1072 145° Southeast 192 221 3,000 -600 Descending Washington Center
12:15PM 34.2189 -78.0858 158° South 181 208 2,700 -300 Descending Washington Center
12:16PM 34.1753 -78.0744 168° South 170 196 2,400 -300 Descending Washington Center